Covington, KY

1:51 PM EDT on May 21, 2018 (GMT -0400)
Cincinnati-Northern KY International

Weather History for KCVG - February, 2012

Change the Weather History Date:

Monday, February 27, 2012

  Actual Average Record
Temperature  
Mean Temperature 46 °F 38 °F  
Max Temperature 60 °F 47 °F 71 °F (1996)
Min Temperature 31 °F 29 °F -4 °F (1934)
Degree Days  
Heating Degree Days 19 27  
Month to date heating degree days 739 828  
Since 1 July heating degree days 3297 3800  
Cooling Degree Days 0 0  
Month to date cooling degree days 0 0  
Year to date cooling degree days 0 0  
Moisture  
Dew Point 24 °F    
Average Humidity 42    
Maximum Humidity 59    
Minimum Humidity 25    
Precipitation  
Precipitation 0.00 in 0.10 in 1.90 in (1910)
Month to date precipitation 0.93 2.71  
Year to date precipitation 6.32 5.71  
Snow  
Snow 0.00 in 0.10 in 3.00 in (1905)
Month to date snowfall 2.1 6.3  
Since 1 July snowfall 4.1 18.4  
Snow Depth 0.00 in    
Sea Level Pressure  
Sea Level Pressure 30.31 in    
Wind  
Wind Speed 10 mph (West)    
Max Wind Speed 22 mph    
Max Gust Speed 26 mph    
Visibility 10 miles    
Events      
T = Trace of Precipitation, MM = Missing Value Source: NWS Daily Summary

Daily Weather History Graph

Daily Weather History Graph

Search for Another Location

Airport or City:

Astronomy

Feb. 27, 2012 Rise Set
Actual Time 7:14 AM EST 6:28 PM EST
Civil Twilight 6:47 AM EST 6:55 PM EST
Nautical Twilight 6:16 AM EST 7:26 PM EST
Astronomical Twilight 5:46 AM EST 7:57 PM EST
Moon 9:46 AM EST (2/27) No Moon Set
Length of Visible Light 12h 07m
Length of Day
11h 13m
Waxing Crescent, 29% of the Moon is Illuminated
Feb 27
Waxing Crescent
Feb 29
First Quarter
Mar 8
Full
Mar 14
Last Quarter
Mar 22
New

Hourly Weather History & Observations

Time (EST) Temp. Windchill Dew Point Humidity Pressure Visibility Wind Dir Wind Speed Gust Speed Precip Events Conditions
12:52 AM 41.0 °F 38.0 °F 19.9 °F 43% 30.22 in 10.0 mi SSW 4.6 mph - N/A   Clear
1:52 AM 37.4 °F 33.8 °F 19.4 °F 48% 30.23 in 10.0 mi South 4.6 mph - N/A   Partly Cloudy
2:52 AM 39.9 °F 34.5 °F 21.0 °F 47% 30.23 in 10.0 mi SSW 8.1 mph - N/A   Mostly Cloudy
3:52 AM 39.0 °F 33.4 °F 21.9 °F 50% 30.22 in 10.0 mi South 8.1 mph - N/A   Scattered Clouds
4:52 AM 41.0 °F 35.2 °F 23.0 °F 49% 30.23 in 10.0 mi South 9.2 mph - N/A   Clear
5:52 AM 41.0 °F 34.7 °F 23.0 °F 49% 30.23 in 10.0 mi South 10.4 mph - N/A   Clear
6:52 AM 42.1 °F 38.4 °F 24.1 °F 49% 30.24 in 10.0 mi SSW 5.8 mph - N/A   Partly Cloudy
7:52 AM 42.1 °F 37.7 °F 26.1 °F 53% 30.25 in 10.0 mi SSW 6.9 mph - N/A   Partly Cloudy
8:52 AM 48.9 °F - 27.0 °F 43% 30.27 in 10.0 mi SW 10.4 mph - N/A   Clear
9:52 AM 53.1 °F - 28.9 °F 40% 30.28 in 10.0 mi WSW 10.4 mph 18.4 mph N/A   Clear
10:52 AM 54.0 °F - 30.0 °F 40% 30.29 in 10.0 mi West 11.5 mph 23.0 mph N/A   Partly Cloudy
11:52 AM 55.0 °F - 30.9 °F 40% 30.31 in 10.0 mi West 13.8 mph - N/A   Clear
12:52 PM 57.0 °F - 30.9 °F 37% 30.32 in 10.0 mi WNW 15.0 mph - N/A   Clear
1:52 PM 57.0 °F - 25.0 °F 29% 30.31 in 10.0 mi West 15.0 mph 26.5 mph N/A   Partly Cloudy
2:52 PM 59.0 °F - 25.0 °F 27% 30.30 in 10.0 mi West 10.4 mph 18.4 mph N/A   Partly Cloudy
3:52 PM 59.0 °F - 24.1 °F 26% 30.31 in 10.0 mi WNW 15.0 mph - N/A   Partly Cloudy
4:52 PM 57.0 °F - 23.0 °F 27% 30.32 in 10.0 mi NW 12.7 mph - N/A   Partly Cloudy
5:52 PM 54.0 °F - 21.9 °F 29% 30.35 in 10.0 mi NW 15.0 mph - N/A   Partly Cloudy
6:52 PM 48.0 °F - 19.9 °F 33% 30.38 in 10.0 mi NW 12.7 mph - N/A   Partly Cloudy
7:52 PM 46.0 °F 39.9 °F 21.9 °F 39% 30.41 in 10.0 mi NW 13.8 mph - N/A   Clear
8:52 PM 42.1 °F 36.1 °F 21.9 °F 45% 30.43 in 10.0 mi North 10.4 mph - N/A   Clear
9:52 PM 39.0 °F 32.8 °F 23.0 °F 53% 30.46 in 10.0 mi North 9.2 mph - N/A   Clear
10:52 PM 36.0 °F 29.6 °F 23.0 °F 59% 30.47 in 10.0 mi North 8.1 mph - N/A   Clear
11:52 PM 35.1 °F 28.6 °F 24.1 °F 64% 30.48 in 10.0 mi NNE 8.1 mph - N/A   Clear